"read_dt","SO2 (ppb)","flags","PMT voltage (V)","lamp voltage (V)","lamp intensity (Hz)","internal temp (C)","react chamber temp (C)","sample flow (l/min)","pres (mmHg)","SO2 bkg (ppb)","SO2 coefficient"
2018-06-06 10:56:00,,,,,,,,,,,
2018-06-06 10:57:00,,,,,,,,,,,
2018-06-06 10:58:00,,,,,,,,,,,
2018-06-06 10:59:00,,,,,,,,,,,
2018-06-06 11:00:00,,,,,,,,,,,
2018-06-06 11:01:00,,,,,,,,,,,
2018-06-06 11:02:00,,,,,,,,,,,
2018-06-06 11:03:00,,,,,,,,,,,
"read_dt","SO2 (ppb)","flags","PMT voltage (V)","lamp voltage (V)","lamp intensity (Hz)","internal temp (C)","react chamber temp (C)","sample flow (l/min)","pres (mmHg)","SO2 bkg (ppb)","SO2 coefficient"
2018-06-06 11:12:00,-1.444E-01,4C000000*,-702.6,967.427,90,30.9,44.9,0.410,741.7,2.1,1.050*
2018-06-06 11:13:00,-1.696E-01,4C000000*,-702.6,966.618,90,30.9,45.1,0.410,741.7,2.1,1.050*
2018-06-06 11:14:00,-1.817E-01,4C000000*,-702.6,967.427,90,30.9,44.9,0.410,741.7,2.1,1.050*
2018-06-06 11:15:00,-1.560E-01,4C000000*,-702.3,967.427,91,30.9,45.0,0.410,741.7,2.1,1.050*
2018-06-06 11:16:00,-1.829E-01,4C000000*,-702.6,966.214,89,30.9,45.2,0.410,741.7,2.1,1.050*
2018-06-06 11:17:00,-1.461E-01,4C000000*,-702.3,966.214,91,30.9,44.9,0.410,742.0,2.1,1.050*
2018-06-06 11:18:00,-7.122E-02,4C000000*,-702.6,966.618,91,30.8,45.1,0.410,741.7,2.1,1.050*
2018-06-06 11:19:00,-2.599E-01,4C000000*,-702.6,967.022,91,30.8,44.9,0.410,742.0,2.1,1.050*
2018-06-06 11:20:00,-1.528E-01,4C000000*,-702.6,967.022,90,30.9,45.2,0.410,741.7,2.1,1.050*
2018-06-06 11:21:00,-1.285E-01,4C000000*,-703.0,967.022,91,30.8,44.9,0.410,741.7,2.1,1.050*
2018-06-06 11:22:00,-1.959E-01,4C000000*,-702.6,965.809,89,30.9,45.2,0.410,742.0,2.1,1.050*
2018-06-06 11:23:00,-1.985E-01,4C000000*,-703.0,966.214,90,30.9,45.0,0.410,741.7,2.1,1.050*
2018-06-06 11:24:00,-2.727E-01,4C000000*,-702.6,966.214,90,31.0,45.0,0.410,742.0,2.1,1.050*
2018-06-06 11:25:00,-1.572E-01,4C000000*,-702.3,965.809,89,31.0,45.0,0.410,741.7,2.1,1.050*
2018-06-06 11:26:00,-1.830E-01,4C000000*,-702.6,966.618,90,31.0,44.8,0.410,742.0,2.1,1.050*
2018-06-06 11:27:00,-2.463E-01,4C000000*,-702.6,966.214,90,31.0,45.2,0.409,742.0,2.1,1.050*
2018-06-06 11:28:00,-1.840E-01,4C000000*,-702.6,966.214,90,31.0,44.9,0.410,742.0,2.1,1.050*
2018-06-06 11:29:00,-2.071E-01,4C000000*,-702.6,967.022,89,31.1,45.2,0.409,742.0,2.1,1.050*
2018-06-06 11:30:00,-1.861E-01,4C000000*,-702.6,967.022,90,31.1,44.9,0.409,741.7,2.1,1.050*
2018-06-06 11:31:00,-1.289E-01,4C000000*,-702.6,965.001,91,31.1,45.0,0.410,742.0,2.1,1.050*
2018-06-06 11:32:00,-2.267E-01,4C000000*,-703.0,967.022,89,31.1,45.0,0.410,741.7,2.1,1.050*
2018-06-06 11:33:00,-1.446E-01,4C000000*,-702.3,967.831,90,31.2,44.9,0.410,742.0,2.1,1.050*
2018-06-06 11:34:00,-2.031E-01,4C000000*,-702.6,967.831,90,31.2,45.2,0.410,741.7,2.1,1.050*
2018-06-06 11:35:00,-1.514E-01,4C000000*,-703.0,967.831,89,31.2,44.9,0.410,742.0,2.1,1.050*
2018-06-06 11:36:00,-1.874E-01,4C000000*,-702.6,967.022,90,31.2,45.1,0.410,742.0,2.1,1.050*
2018-06-06 11:37:00,-1.679E-01,4C000000*,-702.6,966.618,89,31.3,45.0,0.410,742.0,2.1,1.050*
2018-06-06 11:38:00,-1.658E-01,4C000000*,-702.6,969.448,91,31.2,44.8,0.410,742.0,2.1,1.050*
2018-06-06 11:39:00,-9.706E-02,4C000000*,-702.6,967.831,90,31.2,45.2,0.410,742.3,2.1,1.050*
2018-06-06 11:40:00,-1.287E-01,4C000000*,-702.6,967.831,89,31.2,44.9,0.410,742.0,2.1,1.050*
2018-06-06 11:41:00,-1.769E-01,4C000000*,-702.6,967.427,90,31.2,45.1,0.410,742.0,2.1,1.050*
2018-06-06 11:42:00,-1.182E-01,4C000000*,-702.6,966.618,89,31.2,45.0,0.410,742.0,2.1,1.050*
2018-06-06 11:43:00,-9.118E-02,4C000000*,-702.3,967.022,90,31.2,45.0,0.410,742.0,2.1,1.050*
2018-06-06 11:44:00,-1.109E-01,4C000000*,-702.6,967.427,91,31.1,45.0,0.410,742.0,2.1,1.050*
2018-06-06 11:45:00,-6.900E-02,4C000000*,-702.6,966.214,90,31.1,44.9,0.410,742.0,2.1,1.050*
2018-06-06 11:46:00,-1.230E-01,4C000000*,-702.6,966.618,90,31.2,45.2,0.410,742.0,2.1,1.050*
2018-06-06 11:47:00,-6.046E-02,4C000000*,-703.0,966.618,90,31.3,44.8,0.409,742.0,2.1,1.050*
2018-06-06 11:48:00,-1.035E-01,4C000000*,-703.0,968.639,89,31.2,45.1,0.410,742.0,2.1,1.050*
2018-06-06 11:49:00,-1.086E-01,4C000000*,-702.6,967.022,89,31.3,45.0,0.410,741.7,2.1,1.050*
2018-06-06 11:50:00,-1.375E-02,4C000000*,-702.6,966.214,89,31.3,45.0,0.410,742.0,2.1,1.050*
2018-06-06 11:51:00,-2.480E-02,4C000000*,-702.3,967.427,90,31.3,45.0,0.410,742.0,2.1,1.050*
2018-06-06 11:52:00,1.157E-02,4C000000*,-702.6,967.022,91,31.3,44.9,0.410,742.0,2.1,1.050*
2018-06-06 11:53:00,7.002E-03,4C000000*,-702.3,965.405,89,31.3,45.2,0.410,742.0,2.1,1.050*
2018-06-06 11:54:00,-4.230E-02,4C000400*,-702.6,967.022,91,31.4,44.8,0.000,765.0,2.1,1.050*
2018-06-06 11:55:00,-8.885E-02,4C000000*,-702.6,966.214,90,31.3,45.2,0.409,741.7,2.1,1.050*
2018-06-06 11:56:00,-6.666E-02,4C000000*,-702.6,967.427,90,31.3,44.9,0.410,741.7,2.1,1.050*
2018-06-06 11:57:00,-6.324E-02,4C000000*,-702.6,966.618,90,31.3,45.0,0.410,742.0,2.1,1.050*
2018-06-06 11:58:00,1.662E-02,4C000000*,-702.6,966.618,88,31.2,45.1,0.410,741.7,2.1,1.050*
2018-06-06 11:59:00,4.283E-02,4C000000*,-703.0,967.022,90,31.1,44.9,0.410,741.7,2.1,1.050*
2018-06-06 12:00:00,-1.203E-02,4C000000*,-702.6,966.214,88,31.1,45.2,0.410,741.7,2.1,1.050*
2018-06-06 12:01:00,-2.558E-02,4C000000*,-702.6,967.022,90,31.0,44.9,0.410,741.7,2.1,1.050*
2018-06-06 12:02:00,3.260E-02,4C000000*,-702.6,966.214,89,31.0,45.1,0.410,741.7,2.1,1.050*
2018-06-06 12:03:00,-8.024E-02,4C000000*,-702.6,965.809,88,31.0,44.9,0.410,742.0,2.1,1.050*
2018-06-06 12:04:00,4.958E-02,4C000000*,-702.3,966.618,90,31.0,45.2,0.410,742.0,2.1,1.050*
2018-06-06 12:05:00,1.556E-01,4C000000*,-702.3,966.618,90,30.9,44.8,0.410,742.0,2.1,1.050*
2018-06-06 12:06:00,2.330E-01,4C000000*,-702.6,968.235,89,30.8,45.0,0.410,742.0,2.1,1.050*
2018-06-06 12:07:00,3.383E-01,4C000000*,-702.6,966.214,91,30.9,45.0,0.410,741.7,2.1,1.050*
2018-06-06 12:08:00,3.006E-01,4C000000*,-702.6,967.022,90,30.8,44.8,0.410,742.0,2.1,1.050*
2018-06-06 12:09:00,3.589E-01,4C000000*,-703.4,967.831,88,30.8,45.1,0.410,742.0,2.1,1.050*
2018-06-06 12:10:00,4.015E-01,4C000000*,-702.6,966.618,91,30.8,44.9,0.410,741.7,2.1,1.050*
2018-06-06 12:11:00,4.463E-01,4C000000*,-703.0,966.618,90,30.8,45.1,0.410,742.0,2.1,1.050*
2018-06-06 12:12:00,5.400E-01,4C000000*,-702.3,967.831,90,30.7,45.0,0.410,741.7,2.1,1.050*
2018-06-06 12:13:00,5.561E-01,4C000000*,-702.6,966.618,90,30.7,45.0,0.410,741.7,2.1,1.050*
2018-06-06 12:14:00,5.635E-01,4C000000*,-702.6,967.022,90,30.7,45.1,0.410,741.7,2.1,1.050*
2018-06-06 12:15:00,5.292E-01,4C000000*,-702.6,966.214,90,30.6,44.8,0.410,742.0,2.1,1.050*
2018-06-06 12:16:00,6.413E-01,4C000000*,-702.3,967.427,90,30.6,45.2,0.410,741.7,2.1,1.050*
2018-06-06 12:17:00,6.228E-01,4C000000*,-703.0,967.022,90,30.6,44.8,0.410,741.7,2.1,1.050*
2018-06-06 12:18:00,6.262E-01,4C000000*,-703.0,967.831,90,30.5,45.0,0.410,742.0,2.1,1.050*
2018-06-06 12:19:00,7.341E-01,4C000000*,-703.0,969.044,91,30.5,45.1,0.410,741.7,2.1,1.050*
2018-06-06 12:20:00,5.742E-01,4C000000*,-702.6,967.831,88,30.6,45.0,0.410,742.0,2.1,1.050*
2018-06-06 12:21:00,5.862E-01,4C000000*,-702.6,968.235,90,30.5,45.0,0.410,741.7,2.1,1.050*
2018-06-06 12:22:00,5.756E-01,4C000000*,-702.6,968.235,89,30.5,44.8,0.410,742.0,2.1,1.050*
2018-06-06 12:23:00,5.545E-01,4C000000*,-702.6,968.639,91,30.5,45.2,0.410,741.7,2.1,1.050*
2018-06-06 12:24:00,4.926E-01,4C000000*,-702.6,967.022,89,30.5,44.8,0.410,742.0,2.1,1.050*
2018-06-06 12:25:00,5.116E-01,4C000000*,-702.6,965.809,91,30.5,45.1,0.410,742.0,2.1,1.050*
2018-06-06 12:26:00,4.805E-01,4C000000*,-702.6,968.235,91,30.5,44.9,0.410,742.0,2.1,1.050*
2018-06-06 12:27:00,4.448E-01,4C000000*,-702.6,968.235,89,30.5,45.0,0.410,742.3,2.1,1.050*
2018-06-06 12:28:00,3.525E-01,4C000000*,-702.3,967.022,91,30.5,45.1,0.410,742.0,2.1,1.050*
2018-06-06 12:29:00,2.980E-01,4C000000*,-702.6,967.831,91,30.4,44.9,0.410,742.0,2.1,1.050*
2018-06-06 12:30:00,2.428E-01,4C000000*,-702.3,967.427,89,30.5,45.2,0.410,742.0,2.1,1.050*
2018-06-06 12:31:00,2.700E-01,4C000000*,-702.6,968.235,89,30.6,44.8,0.410,742.0,2.1,1.050*
2018-06-06 12:32:00,2.517E-01,4C000000*,-702.6,968.639,90,30.6,45.1,0.410,742.0,2.1,1.050*
2018-06-06 12:33:00,1.534E-01,4C000000*,-703.0,967.831,89,30.6,45.0,0.410,742.0,2.1,1.050*
2018-06-06 12:34:00,2.044E-01,4C000000*,-703.0,967.831,89,30.8,45.0,0.410,742.0,2.1,1.050*
2018-06-06 12:35:00,1.322E-01,4C000000*,-703.0,967.831,90,30.8,45.1,0.410,742.0,2.1,1.050*
2018-06-06 12:36:00,1.772E-01,4C000000*,-702.6,967.831,90,30.8,44.9,0.410,742.0,2.1,1.050*
2018-06-06 12:37:00,1.446E-01,4C000000*,-702.6,969.448,91,30.8,45.2,0.410,742.0,2.1,1.050*
2018-06-06 12:38:00,7.329E-02,4C000000*,-702.6,968.639,91,30.8,44.9,0.410,742.0,2.1,1.050*
2018-06-06 12:39:00,6.516E-02,4C000000*,-703.0,968.639,90,30.9,45.1,0.410,742.0,2.1,1.050*
2018-06-06 12:40:00,1.407E-01,4C000000*,-702.6,968.235,91,30.9,44.8,0.410,742.0,2.1,1.050*
2018-06-06 12:41:00,1.651E-01,4C000000*,-703.0,969.044,91,31.0,45.0,0.409,742.0,2.1,1.050*
2018-06-06 12:42:00,1.318E-01,4C000000*,-703.0,967.427,90,31.1,45.1,0.410,742.0,2.1,1.050*
2018-06-06 12:43:00,2.688E-01,4C000000*,-702.6,968.639,89,31.2,44.9,0.410,742.0,2.1,1.050*
2018-06-06 12:44:00,1.521E-01,4C000000*,-702.6,968.235,90,31.2,45.2,0.409,742.0,2.1,1.050*
2018-06-06 12:45:00,1.223E-01,4C000000*,-703.0,967.831,89,31.3,44.9,0.410,742.0,2.1,1.050*
2018-06-06 12:46:00,1.736E-01,4C000000*,-702.6,968.639,89,31.3,45.1,0.410,742.0,2.1,1.050*
2018-06-06 12:47:00,2.364E-02,4C000000*,-702.3,969.852,90,31.3,44.9,0.410,742.0,2.1,1.050*
2018-06-06 12:48:00,9.888E-02,4C000000*,-702.6,967.831,88,31.3,45.1,0.410,742.0,2.1,1.050*
2018-06-06 12:49:00,7.283E-02,4C000000*,-702.3,968.639,91,31.3,45.1,0.410,741.7,2.1,1.050*
2018-06-06 12:50:00,8.286E-02,4C000000*,-702.3,967.427,88,31.3,45.0,0.410,742.0,2.1,1.050*
2018-06-06 12:51:00,-4.125E-02,4C000000*,-702.6,969.448,89,31.3,45.1,0.410,742.0,2.1,1.050*
2018-06-06 12:52:00,-6.643E-02,4C000000*,-702.6,968.235,88,31.3,44.9,0.410,742.0,2.1,1.050*
2018-06-06 12:53:00,-7.529E-02,4C000000*,-703.4,968.639,90,31.4,45.2,0.410,742.0,2.1,1.050*
2018-06-06 12:54:00,-4.598E-02,4C000000*,-702.6,967.022,90,31.4,44.9,0.410,742.0,2.1,1.050*
2018-06-06 12:55:00,-7.838E-02,4C000000*,-703.0,967.427,91,31.4,45.2,0.410,742.0,2.1,1.050*
2018-06-06 12:56:00,-1.766E-02,4C000000*,-702.6,967.831,90,31.4,44.9,0.410,741.7,2.1,1.050*
2018-06-06 12:57:00,-7.562E-02,4C000000*,-702.6,968.639,91,31.4,45.0,0.410,742.0,2.1,1.050*
2018-06-06 12:58:00,-4.376E-02,4C000000*,-703.0,967.427,90,31.4,45.1,0.410,742.0,2.1,1.050*
2018-06-06 12:59:00,-9.934E-02,4C000000*,-702.6,968.639,91,31.4,44.9,0.410,742.0,2.1,1.050*
2018-06-06 13:00:00,-1.206E-01,4C000000*,-702.6,969.044,89,31.4,45.2,0.410,741.7,2.1,1.050*
2018-06-06 13:01:00,-1.366E-01,4C000000*,-702.6,969.044,90,31.4,44.8,0.410,742.0,2.1,1.050*
2018-06-06 13:02:00,-1.131E-01,4C000000*,-703.0,968.235,91,31.4,45.2,0.410,742.0,2.1,1.050*
2018-06-06 13:03:00,-1.303E-01,4C000000*,-702.6,969.852,89,31.5,44.9,0.410,741.7,2.1,1.050*
2018-06-06 13:04:00,-1.577E-01,4C000000*,-702.6,969.044,90,31.5,45.0,0.410,742.0,2.1,1.050*
2018-06-06 13:05:00,-8.635E-02,4C000000*,-702.6,968.235,90,31.4,45.0,0.410,741.7,2.1,1.050*
2018-06-06 13:06:00,-1.673E-01,4C000000*,-702.6,968.639,91,31.4,45.1,0.410,742.0,2.1,1.050*
2018-06-06 13:07:00,-1.020E-01,4C000000*,-702.6,967.831,90,31.5,45.1,0.409,741.7,2.1,1.050*
2018-06-06 13:08:00,-1.536E-01,4C000000*,-702.6,968.639,90,31.5,45.0,0.410,742.0,2.1,1.050*
2018-06-06 13:09:00,-9.664E-02,4C000000*,-702.6,968.235,90,31.5,45.1,0.410,742.0,2.1,1.050*
2018-06-06 13:10:00,-8.158E-02,4C000000*,-702.6,969.044,90,31.4,44.9,0.410,742.0,2.1,1.050*
2018-06-06 13:11:00,4.728E-02,4C000000*,-702.6,967.831,91,31.5,45.1,0.410,742.0,2.1,1.050*
2018-06-06 13:12:00,3.424E-02,4C000000*,-702.6,969.044,91,31.5,44.9,0.410,741.7,2.1,1.050*
2018-06-06 13:13:00,3.942E-02,4C000000*,-702.6,967.831,90,31.5,45.2,0.410,741.7,2.1,1.050*
2018-06-06 13:14:00,8.962E-02,4C000000*,-702.3,968.639,90,31.6,44.9,0.410,741.7,2.1,1.050*
2018-06-06 13:15:00,-7.090E-02,4C000000*,-702.3,966.618,90,31.6,44.9,0.410,742.0,2.1,1.050*
2018-06-06 13:16:00,-1.425E-01,4C000000*,-702.6,969.448,91,31.6,45.1,0.410,742.0,2.1,1.050*
2018-06-06 13:17:00,-1.289E-01,4C000000*,-702.3,967.831,91,31.6,45.0,0.410,742.0,2.1,1.050*
2018-06-06 13:18:00,-7.507E-02,4C000000*,-702.6,969.044,90,31.6,45.1,0.410,741.7,2.1,1.050*
2018-06-06 13:19:00,-4.796E-02,4C000000*,-702.6,968.639,89,31.7,44.9,0.410,742.0,2.1,1.050*
2018-06-06 13:20:00,-4.670E-02,4C000000*,-703.0,968.639,91,31.7,45.2,0.410,742.0,2.1,1.050*
2018-06-06 13:21:00,-1.394E-01,4C000000*,-702.6,969.448,91,31.6,44.8,0.410,742.0,2.1,1.050*
2018-06-06 13:22:00,-1.839E-01,4C000000*,-702.6,968.639,90,31.7,45.1,0.410,742.0,2.1,1.050*
2018-06-06 13:23:00,-1.382E-01,4C000000*,-702.6,967.831,89,31.7,44.9,0.410,742.0,2.1,1.050*
2018-06-06 13:24:00,-1.804E-01,4C000000*,-702.3,967.831,91,31.7,45.1,0.410,742.0,2.1,1.050*
2018-06-06 13:25:00,-1.888E-01,4C000000*,-702.3,968.235,89,31.7,45.0,0.410,742.0,2.1,1.050*
2018-06-06 13:26:00,-1.343E-01,4C000000*,-702.6,967.427,88,31.8,44.9,0.410,742.3,2.1,1.050*
2018-06-06 13:27:00,-2.389E-01,4C000000*,-702.6,968.235,90,31.8,45.1,0.410,742.0,2.1,1.050*
2018-06-06 13:28:00,-6.930E-02,4C000000*,-702.6,968.235,89,31.8,44.8,0.410,742.0,2.1,1.050*
2018-06-06 13:29:00,-3.964E-02,4C000000*,-702.3,967.427,89,31.9,45.1,0.410,742.0,2.1,1.050*
2018-06-06 13:30:00,-4.317E-02,4C000000*,-702.6,967.831,91,31.8,44.9,0.410,742.0,2.1,1.050*
2018-06-06 13:31:00,1.822E-01,4C000000*,-702.6,967.831,90,31.8,45.2,0.410,742.0,2.1,1.050*
2018-06-06 13:32:00,1.609E-01,4C000000*,-702.6,968.639,90,31.8,45.0,0.410,742.0,2.1,1.050*
2018-06-06 13:33:00,4.145E-03,4C000000*,-702.3,968.235,88,31.8,44.9,0.410,741.7,2.1,1.050*
2018-06-06 13:34:00,1.307E-01,4C000000*,-702.6,966.618,91,31.9,45.1,0.410,742.0,2.1,1.050*
2018-06-06 13:35:00,1.973E-01,4C000000*,-702.6,967.022,90,31.9,44.9,0.410,742.0,2.1,1.050*
2018-06-06 13:36:00,2.068E-01,4C000000*,-702.6,967.427,90,31.9,45.2,0.410,742.0,2.1,1.050*
2018-06-06 13:37:00,2.691E-01,4C000000*,-702.3,967.831,91,32.0,44.8,0.411,742.0,2.1,1.050*
2018-06-06 13:38:00,1.830E-01,4C000000*,-702.6,966.618,89,31.9,45.2,0.410,742.0,2.1,1.050*
2018-06-06 13:39:00,2.577E-01,4C000000*,-702.3,966.618,90,31.9,45.1,0.410,741.7,2.1,1.050*
2018-06-06 13:40:00,2.889E-01,4C000000*,-702.6,967.427,90,32.0,45.0,0.410,742.0,2.1,1.050*
2018-06-06 13:41:00,2.861E-01,4C000000*,-703.0,968.235,89,32.0,45.0,0.410,742.0,2.1,1.050*
2018-06-06 13:42:00,2.309E-01,4C000000*,-702.3,969.044,89,32.0,44.9,0.410,742.0,2.1,1.050*
2018-06-06 13:43:00,2.225E-01,4C000000*,-702.6,967.831,90,32.1,45.2,0.410,741.7,2.1,1.050*
2018-06-06 13:44:00,2.497E-01,4C000000*,-702.6,967.831,89,32.0,44.9,0.410,742.0,2.1,1.050*
2018-06-06 13:45:00,2.355E-01,4C000000*,-702.6,968.235,88,32.1,45.2,0.410,742.0,2.1,1.050*
2018-06-06 13:46:00,1.860E-01,4C000000*,-702.3,967.831,91,32.1,45.0,0.410,742.0,2.1,1.050*
2018-06-06 13:47:00,2.828E-01,4C000000*,-702.3,966.618,90,32.1,45.0,0.410,742.0,2.1,1.050*
2018-06-06 13:48:00,2.028E-01,4C000000*,-702.6,967.022,90,32.1,45.0,0.410,742.0,2.1,1.050*
2018-06-06 13:49:00,5.002E-02,4C000000*,-702.6,968.235,90,32.1,44.9,0.410,742.0,2.1,1.050*
2018-06-06 13:50:00,2.212E-01,4C000000*,-702.6,968.235,89,32.1,45.3,0.410,741.7,2.1,1.050*
2018-06-06 13:51:00,1.397E-01,4C000000*,-702.3,967.022,90,32.1,44.9,0.410,742.0,2.1,1.050*
2018-06-06 13:52:00,1.517E-01,4C000000*,-702.6,966.618,89,32.2,45.2,0.410,742.0,2.1,1.050*
2018-06-06 13:53:00,1.255E-01,4C000000*,-703.0,967.022,91,32.2,44.9,0.410,741.7,2.1,1.050*
2018-06-06 13:54:00,1.517E-01,4C000000*,-702.3,967.427,90,32.2,45.0,0.410,742.0,2.1,1.050*
2018-06-06 13:55:00,2.322E-01,4C000000*,-702.6,967.831,91,32.2,45.1,0.410,742.0,2.1,1.050*
2018-06-06 13:56:00,9.237E-02,4C000000*,-702.6,968.235,89,32.3,45.0,0.410,742.0,2.1,1.050*
2018-06-06 13:57:00,1.596E-01,4C000000*,-702.6,967.427,90,32.2,45.2,0.410,741.7,2.1,1.050*
2018-06-06 13:58:00,5.613E-02,4C000000*,-702.6,966.618,89,32.3,44.8,0.410,742.0,2.1,1.050*
2018-06-06 13:59:00,2.499E-01,4C000000*,-702.3,966.618,91,32.3,45.1,0.410,742.0,2.1,1.050*
2018-06-06 14:00:00,5.537E-02,4C000000*,-702.6,968.235,89,32.3,44.9,0.410,742.0,2.1,1.050*
2018-06-06 14:01:00,1.078E-01,4C000000*,-702.6,966.214,90,32.3,45.1,0.410,742.0,2.1,1.050*
2018-06-06 14:02:00,1.624E-01,4C000000*,-702.3,967.831,90,32.3,45.1,0.410,742.0,2.1,1.050*
2018-06-06 14:03:00,6.166E-02,4C000000*,-702.3,968.235,90,32.3,45.0,0.410,742.0,2.1,1.050*
2018-06-06 14:04:00,8.666E-02,4C000000*,-703.0,969.044,92,32.4,45.1,0.410,742.0,2.1,1.050*
2018-06-06 14:05:00,1.415E-01,4C000000*,-703.0,967.831,91,32.4,44.8,0.410,742.3,2.1,1.050*
2018-06-06 14:06:00,1.083E-01,4C000000*,-702.6,967.427,90,32.3,45.2,0.410,742.3,2.1,1.050*
2018-06-06 14:07:00,7.374E-02,4C000000*,-702.6,967.831,91,32.3,44.9,0.410,742.0,2.1,1.050*
2018-06-06 14:08:00,3.372E-02,4C000000*,-703.0,966.618,88,32.4,45.1,0.410,742.3,2.1,1.050*
2018-06-06 14:09:00,1.184E-02,4C000000*,-702.6,968.235,90,32.4,45.1,0.410,742.0,2.1,1.050*
2018-06-06 14:10:00,3.292E-02,4C000000*,-702.6,968.639,90,32.4,45.0,0.410,742.3,2.1,1.050*
2018-06-06 14:11:00,1.440E-01,4C000000*,-702.3,967.022,90,32.4,45.1,0.410,742.0,2.1,1.050*
2018-06-06 14:12:00,6.784E-02,4C000000*,-702.6,967.427,90,32.4,44.9,0.410,742.3,2.1,1.050*
2018-06-06 14:13:00,1.599E-01,4C000000*,-702.6,967.831,89,32.4,45.1,0.411,742.3,2.1,1.050*
2018-06-06 14:14:00,1.054E-01,4C000000*,-702.3,968.639,91,32.4,44.9,0.410,742.3,2.1,1.050*
2018-06-06 14:15:00,2.781E-01,4C000000*,-702.3,968.235,89,32.4,45.2,0.410,742.3,2.1,1.050*
2018-06-06 14:16:00,6.310E-02,4C000000*,-702.6,968.639,89,32.4,45.1,0.411,742.0,2.1,1.050*
2018-06-06 14:17:00,6.147E-02,4C000000*,-702.6,967.427,90,32.4,45.0,0.410,742.0,2.1,1.050*
2018-06-06 14:18:00,1.018E-01,4C000000*,-702.6,968.639,90,32.4,45.0,0.410,742.0,2.1,1.050*
2018-06-06 14:19:00,1.564E-01,4C000000*,-702.6,968.639,92,32.4,44.8,0.410,742.0,2.1,1.050*
2018-06-06 14:20:00,2.396E-01,4C000000*,-702.6,968.639,90,32.4,45.1,0.410,742.0,2.1,1.050*
2018-06-06 14:21:00,9.877E-02,4C000000*,-702.6,969.448,89,32.4,44.8,0.410,742.0,2.1,1.050*
2018-06-06 14:22:00,1.463E-01,4C000000*,-702.3,967.831,90,32.4,45.2,0.410,742.0,2.1,1.050*
2018-06-06 14:23:00,9.682E-02,4C000000*,-702.6,968.235,90,32.4,45.0,0.410,742.3,2.1,1.050*
2018-06-06 14:24:00,4.642E-02,4C000000*,-703.0,968.235,89,32.4,45.0,0.410,742.0,2.1,1.050*
2018-06-06 14:25:00,4.396E-02,4C000000*,-703.0,968.639,90,32.4,45.0,0.410,742.0,2.1,1.050*
2018-06-06 14:26:00,3.660E-02,4C000000*,-702.6,967.427,90,32.4,44.9,0.410,742.3,2.1,1.050*
2018-06-06 14:27:00,2.912E-02,4C000000*,-702.6,967.427,91,32.4,45.3,0.410,742.3,2.1,1.050*
2018-06-06 14:28:00,-1.596E-02,4C000000*,-702.6,967.022,89,32.4,44.9,0.410,742.3,2.1,1.050*
2018-06-06 14:29:00,4.954E-03,4C000000*,-702.6,967.831,90,32.4,45.2,0.410,742.3,2.1,1.050*
2018-06-06 14:30:00,-6.715E-02,4C000000*,-702.3,968.235,88,32.4,44.9,0.410,742.3,2.1,1.050*
2018-06-06 14:31:00,5.954E-02,4C000000*,-702.6,968.235,89,32.5,45.0,0.410,742.3,2.1,1.050*
2018-06-06 14:32:00,-2.693E-02,4C000000*,-702.6,969.448,90,32.5,45.0,0.410,742.3,2.1,1.050*
2018-06-06 14:33:00,-7.229E-02,4C000000*,-702.6,968.235,90,32.5,44.9,0.410,742.3,2.1,1.050*
2018-06-06 14:34:00,-3.611E-02,4C000000*,-702.6,967.022,89,32.4,45.2,0.411,742.3,2.1,1.050*
2018-06-06 14:35:00,-1.026E-01,4C000000*,-702.6,968.235,90,32.5,44.9,0.410,742.0,2.1,1.050*
2018-06-06 14:36:00,2.295E-02,4C000000*,-702.6,967.427,90,32.5,45.2,0.410,742.3,2.1,1.050*
2018-06-06 14:37:00,1.931E-02,4C000000*,-702.6,967.831,89,32.5,44.9,0.410,742.3,2.1,1.050*
2018-06-06 14:38:00,-4.843E-02,4C000000*,-702.6,968.235,89,32.5,45.0,0.410,742.3,2.1,1.050*
2018-06-06 14:39:00,8.129E-03,4C000000*,-702.3,968.639,91,32.5,45.0,0.410,742.3,2.1,1.050*
2018-06-06 14:40:00,8.113E-02,4C000000*,-702.3,968.639,89,32.5,44.9,0.410,742.3,2.1,1.050*
2018-06-06 14:41:00,-2.310E-02,4C000000*,-702.3,967.831,91,32.5,45.2,0.411,742.3,2.1,1.050*
2018-06-06 14:42:00,-4.309E-02,4C000000*,-702.6,969.044,91,32.5,44.9,0.410,742.3,2.1,1.050*
2018-06-06 14:43:00,-4.985E-02,4C000000*,-702.3,968.639,90,32.5,45.1,0.410,742.3,2.1,1.050*
2018-06-06 14:44:00,-5.007E-02,4C000000*,-702.6,968.235,89,32.5,44.9,0.410,742.3,2.1,1.050*
2018-06-06 14:45:00,-1.166E-02,4C000000*,-702.3,968.235,89,32.5,45.1,0.410,742.3,2.1,1.050*
2018-06-06 14:46:00,-3.413E-02,4C000000*,-702.6,967.831,90,32.5,45.1,0.410,742.3,2.1,1.050*
2018-06-06 14:47:00,-7.676E-02,4C000000*,-702.6,968.639,91,32.5,45.0,0.410,742.3,2.1,1.050*
2018-06-06 14:48:00,-8.084E-02,4C000000*,-702.6,967.831,91,32.5,45.1,0.410,742.3,2.1,1.050*
2018-06-06 14:49:00,-1.049E-02,4C000000*,-702.6,968.235,88,32.6,44.8,0.410,742.3,2.1,1.050*
2018-06-06 14:50:00,-4.654E-02,4C000000*,-702.6,969.044,90,32.5,45.1,0.410,742.3,2.1,1.050*
2018-06-06 14:51:00,-3.740E-02,4C000000*,-702.6,969.044,91,32.5,44.9,0.410,742.3,2.1,1.050*
2018-06-06 14:52:00,-2.142E-02,4C000000*,-702.6,967.427,91,32.6,45.2,0.410,742.3,2.1,1.050*
2018-06-06 14:53:00,1.243E-02,4C000000*,-702.6,967.022,88,32.5,45.1,0.410,742.3,2.1,1.050*
2018-06-06 14:54:00,-1.486E-02,4C000000*,-702.3,968.235,90,32.5,45.0,0.410,742.3,2.1,1.050*
2018-06-06 14:55:00,2.346E-02,4C000000*,-702.6,967.831,91,32.5,45.1,0.410,742.3,2.1,1.050*
2018-06-06 14:56:00,7.022E-02,4C000000*,-703.0,966.618,90,32.5,44.9,0.410,742.3,2.1,1.050*
2018-06-06 14:57:00,1.187E-02,4C000000*,-702.6,967.427,90,32.5,45.2,0.410,742.3,2.1,1.050*
2018-06-06 14:58:00,1.016E-01,4C000000*,-702.6,968.235,90,32.5,44.9,0.410,742.3,2.1,1.050*
2018-06-06 14:59:00,4.031E-02,4C000000*,-702.6,967.831,89,32.5,45.2,0.410,742.3,2.1,1.050*
2018-06-06 15:00:00,-6.061E-04,4C000000*,-702.6,967.831,89,32.5,45.1,0.410,742.3,2.1,1.050*
2018-06-06 15:01:00,4.639E-02,4C000000*,-702.6,969.044,90,32.5,45.0,0.411,742.3,2.1,1.050*
2018-06-06 15:02:00,3.791E-02,4C000000*,-703.4,968.639,89,32.5,45.0,0.410,742.3,2.1,1.050*
2018-06-06 15:03:00,-3.285E-02,4C000000*,-702.6,969.044,91,32.5,44.9,0.410,742.3,2.1,1.050*
2018-06-06 15:04:00,1.649E-01,4C000000*,-702.6,967.427,90,32.5,45.1,0.410,742.3,2.1,1.050*
2018-06-06 15:05:00,1.329E-01,4C000000*,-703.0,969.448,89,32.5,44.8,0.410,742.3,2.1,1.050*
2018-06-06 15:06:00,1.541E-01,4C000000*,-702.3,967.831,91,32.6,45.2,0.410,742.3,2.1,1.050*
2018-06-06 15:07:00,1.944E-01,4C000000*,-702.6,968.235,90,32.4,45.0,0.410,742.3,2.1,1.050*
2018-06-06 15:08:00,1.147E-01,4C000000*,-702.6,969.044,90,32.5,45.1,0.410,742.3,2.1,1.050*
2018-06-06 15:09:00,-4.469E-02,4C000000*,-702.6,969.448,89,32.5,45.0,0.410,742.3,2.1,1.050*
2018-06-06 15:10:00,-9.335E-02,4C000000*,-702.6,967.427,90,32.5,44.9,0.410,742.3,2.1,1.050*
2018-06-06 15:11:00,-1.488E-01,4C000000*,-702.6,968.235,89,32.5,45.2,0.410,742.3,2.1,1.050*
2018-06-06 15:12:00,-7.553E-02,4C000000*,-702.6,968.639,90,32.5,44.9,0.410,742.3,2.1,1.050*
2018-06-06 15:13:00,-8.219E-02,4C000000*,-702.6,968.639,90,32.5,45.2,0.410,742.3,2.1,1.050*
2018-06-06 15:14:00,-1.500E-01,4C000000*,-702.6,969.448,90,32.5,44.9,0.410,742.3,2.1,1.050*
2018-06-06 15:15:00,-1.415E-01,4C000000*,-702.6,969.044,90,32.5,45.1,0.411,742.3,2.1,1.050*
2018-06-06 15:16:00,-2.566E-01,4C000000*,-703.0,967.831,89,32.6,45.0,0.411,742.3,2.1,1.050*
2018-06-06 15:17:00,-1.566E-01,4C000000*,-703.0,969.044,90,32.5,44.9,0.410,742.3,2.1,1.050*
2018-06-06 15:18:00,-6.002E-02,4C000000*,-702.6,968.639,89,32.5,45.2,0.410,742.3,2.1,1.050*
2018-06-06 15:19:00,-1.650E-01,4C000000*,-702.6,967.022,90,32.5,44.9,0.410,742.3,2.1,1.050*
2018-06-06 15:20:00,-2.157E-01,4C000000*,-702.3,968.639,89,32.5,45.2,0.410,742.3,2.1,1.050*
2018-06-06 15:21:00,-1.815E-01,4C000000*,-702.3,968.639,90,32.5,44.9,0.410,742.3,2.1,1.050*
2018-06-06 15:22:00,-2.068E-01,4C000000*,-702.6,967.831,89,32.5,45.0,0.411,742.3,2.1,1.050*
2018-06-06 15:23:00,-1.302E-01,4C000000*,-702.3,967.427,89,32.5,45.0,0.410,742.3,2.1,1.050*